Regional Weather Roundup
Issued by NWS Spokane, WA

Home | Current Version | Previous Version | Text Only | Print | Product List | Glossary On
Versions: 1 2 3 4 5 6 7 8 9 10 11 12 13 14 15 16 17 18 19 20 21 22 23 24 25 26 27 28 29 30 31 32 33 34 35 36 37 38 39 40 41 42 43 44 45 46 47 48 49 50
000
NZUS01 KOTX 190610
RWROTX
EASTERN WASHINGTON/NORTHERN IDAHO ROUNDUP
NATIONAL WEATHER SERVICE, SPOKANE WA
1100 PM PDT THU SEP 18 2014

Note: "fair" indicated few or no clouds below 12,000 feet with no
significant weather and/or obstructions to visibility.

...NORTHEAST WASHINGTON AND NORTHERN IDAHO PANHANDLE...

CITY           SKY/WX    TMP DP  RH WIND       PRES   REMARKS
SPOKANE INTL   MOCLDY    63  47  55 SW12      29.83R
SPOKANE DOWNTO PTCLDY    67  46  47 SW8       29.83R
COEUR D ALENE  MOCLDY    66  46  48 SW15      29.82R
DEER PARK      MOCLDY    62  48  60 S6        29.82R
SANDPOINT      CLOUDY    55  55 100 CALM      29.81R

...SOUTHEAST WASHINGTON AND SOUTHERN IDAHO PANHANDLE...

CITY           SKY/WX    TMP DP  RH WIND       PRES   REMARKS
WALLA WALLA    MOCLDY    67  50  54 SW14      29.93R
PULLMAN/MOSCOW PTCLDY    62  49  62 SW14      29.92R
LEWISTON       PTCLDY    70  49  47 S8        29.86R
LOWELL           N/A     61  53  75 CALM      29.88R

...COLUMBIA BASIN...

CITY           SKY/WX    TMP DP  RH WIND       PRES   REMARKS
EPHRATA        CLOUDY    67  47  48 S13       29.82R
MOSES LAKE     CLOUDY    66  50  56 W12       29.84R
TRI CITIES     PTCLDY    68  53  58 SW12      29.87R
HERMISTON      PTCLDY    65  52  62 SW13      29.90R
PENDLETON      CLEAR     64  48  56 W16G25    29.93R

...EAST SLOPES CASCADES...

CITY           SKY/WX    TMP DP  RH WIND       PRES   REMARKS
THE DALLES     CLOUDY    68  54  60 W7        29.93R
YAKIMA         CLOUDY    57  49  74 CALM      29.90R
ELLENSBURG     CLOUDY    64  50  60 NW22G30   29.92R
WENATCHEE      CLOUDY    69  48  47 NW12      29.85R
OMAK           MOCLDY    62  51  67 SE6       29.80R

...SOUTHERN BRITISH COLUMBIA...

CITY           SKY/WX    TMP DP  RH WIND       PRES   REMARKS
PENTICTON      MOCLDY    68  54  60 NW3       29.80R
CRANBROOK      PTCLDY    54  48  82 VRB5      29.78R

...WESTERN MONTANA...

CITY           SKY/WX    TMP DP  RH WIND       PRES   REMARKS
MISSOULA       CLOUDY    63  44  50 NW3       29.87S

...NEIGHBORING CITIES...

CITY           SKY/WX    TMP DP  RH WIND       PRES   REMARKS
SEATTLE        CLOUDY    64  57  78 SW9       29.99R
CALGARY        MOCLDY    54  48  82 NW2       29.66R



USA.gov is the U.S. government's official web portal to all federal, state and local government web resources and services.